Retour au catalogue

NORSAT 3

ActifScienceSSO
NORAD 48272·PAYLOAD·🇳🇴 Norway

Lancé Apr 29, 2021 depuis Guiana Space Centre

Loading…

Prochains Passages (prochaines 24 heures)

TLE

FraisSource: Space-Track

Époque: Sep 14, 2026, 22:19 UTC

1 48272U 21034E   26257.93012550  .00002037  00000-0  14419-3 0  9994
2 48272  97.5220 313.0431 0007363  10.0659 350.0715 15.05917792293343

Suivez NORSAT 3 en temps réel avec AllMySat

Download on the App Store